Find Starlink 35328

NORAD ID: 65652 Int'l Des: 2025-211 Owner: SPXS Country: US Constellation: starlink operational
LEOCIRCULARRETROGRADESSO

当前视图

正在加载3D地球...

About Starlink 35328

Starlink 35328 (NORAD 65652) is a starlink constellation satellite (v2 mini) launched Sep 19, 2025 by SPXS of US. It operates in LEO, CIRCULAR, RETROGRADE, SSO orbit with a mass of 575.00 kg.

即将过境

Passes for default location (London). Set your location on the main map for personalized predictions.

高度历史

Loading altitude history...

两行轨道根数

1 65652U 25211A 26263.05622227 .00017891 00000-0 55500-3 0 9994
2 65652 97.2838 303.2640 0001402 99.0402 261.0999 15.33455876 56455
Epoch: Sep 20, 2026 • Age: 14 hours

当前状态

高度 473.1 km
远地点 / 近地点 N/A
速度 7.63 km/s
星下点 51.22°N, 60.18°E
发射日期 Sep 19, 2025
运行时间 0.9 years
类型 internet

技术详情

分类 Payload
质量 575.00 kg
干质量 530.00 kg
长度 0.30 m
跨度 29.00 m
形状 ? Box + pan
制造商 SPXS
平台类型 Starlink V2MO
阶段状态 In Orbit
所有者/国家 SPXS/US

Most Searched